Regional Weather Roundup
Issued by NWS

Home | Current Version | Previous Version | Graphics & Text | Print | Product List | Glossary On
Versions: 1 2 3 4 5 6 7 8 9 10 11 12 13 14 15 16 17 18 19 20 21 22 23 24 25 26 27 28 29 30 31 32 33 34 35 36 37 38 39 40 41 42 43 44 45 46 47 48 49 50
000
ASUS43 KDMX 222201
RWRIA

WEATHER ROUNDUP FOR IOWA
NATIONAL WEATHER SERVICE DES MOINES IA
500 PM CDT SUN APR 22 2018

NOTE: "FAIR" INDICATES FEW OR NO CLOUDS BELOW 12,000 FEET WITH NO
SIGNIFICANT WEATHER AND/OR OBSTRUCTIONS TO VISIBILITY.

* - THESE STATIONS ARE NOT NWS STATIONS...THUS NOT UNDER NWS
QUALITY CONTROL.  THEY ALSO DO NOT REPORT WEATHER SUCH
AS PRECIPITATION OR FOG.

IAZ001>003-012>014-020>022-031>034-043>046-222300-
   NORTHWEST IOWA

CITY           SKY/WX    TMP DP  RH WIND       PRES   REMARKS
CARROLL *      CLOUDY    66  28  24 NE10      30.17F
DENISON *      CLOUDY    64  28  25 NE9       30.18F
LE MARS *      SUNNY     63  37  39 E12G17    30.20S
ORANGE CITY *  SUNNY     63  41  45 E12       30.21F
SHELDON *      SUNNY     57  39  51 E15       30.20F
SIOUX CITY     SUNNY     66  30  26 E10       30.17F
SPENCER        SUNNY     56  40  55 NE14      30.25F
STORM LAKE *   SUNNY     61  37  41 NE15      30.20F
$$

IAZ055>058-069>071-079>083-090>094-222300-
   SOUTHWEST IOWA

CITY           SKY/WX    TMP DP  RH WIND       PRES   REMARKS
ATLANTIC *     CLOUDY    66  32  28 E10G17    30.15S
AUDUBON *      CLOUDY    66  23  19 CALM      30.17F
CLARINDA *     CLOUDY    70  34  26 E12       30.13S
COUNCIL BLFS * CLOUDY    68  34  28 VRB7G14   30.14F
CRESTON *      CLOUDY    68  32  26 E15G23    30.14F
HARLAN  *      CLOUDY    66  30  26 E10G17    30.19S
LAMONI         SUNNY     70  39  32 NE9G17    30.11S
RED OAK *      MOSUNNY   70  34  26 E14G21    30.13S
SHENANDOAH *   CLOUDY    70  36  28 E13       30.11F
$$

IAZ047>049-059>061-072>074-084-222300-
   CENTRAL IOWA

CITY           SKY/WX    TMP DP  RH WIND       PRES   REMARKS
AMES           CLOUDY    68  28  22 E10       30.17F
ANKENY *       CLOUDY    68  27  21 E13       30.17F
BOONE *        CLOUDY    66  21  18 E9        30.18S
CHARITON *     SUNNY     70  32  24 E13       30.12F
DES MOINES     CLOUDY    70  28  21 E10G21    30.15F
GRINNELL*      SUNNY     67  17  14 NE16G23   30.18F
KNOXVILLE *    SUNNY     70  27  19 E13G21    30.13S
MARSHALLTOWN   SUNNY     66  33  29 E18       30.18S
NEWTON *       SUNNY     66  19  16 NE15G28   30.16F
PELLA *        SUNNY     71  22  16 E10G20    30.16S
$$

IAZ004>006-015-016-023>025-035-036-222300-
   NORTH CENTRAL IOWA

CITY           SKY/WX    TMP DP  RH WIND       PRES   REMARKS
ALGONA *       SUNNY     59  45  58 NE14      30.24F
CLARION *      SUNNY     66  32  28 E13       30.21F
ESTHERVILLE    SUNNY     47  39  74 NE9       30.25F
FORT DODGE *   SUNNY     65  34  31 E15       30.20F
MASON CITY     SUNNY     61  39  44 E8        30.24F
FOREST CITY *  FAIR      59  41  51 NE15      30.25S
IOWA FALLS *   FAIR      65  29  25 E10       30.21S
$$

IAZ007>011-017>019-026>030-037>042-050>054-066-222300-
   NORTHEAST IOWA

CITY           SKY/WX    TMP DP  RH WIND       PRES   REMARKS
CEDAR RAPIDS   FAIR      69  29  22 E16       30.18F
CHARLES CITY * FAIR      63  34  34 E10       30.24S
CLINTON *      FAIR      64  32  30 E17       30.20F
DECORAH *      FAIR      63  28  27 E10       30.24F
DUBUQUE        FAIR      64  32  30 E13       30.21F
MONTICELLO *   FAIR      66  32  28 NE14      30.20F
OELWEIN *      FAIR      64  34  32 E13       30.22F
WATERLOO       FAIR      66  32  28 E15G22    30.20F
$$

IAZ064-065-067-068-078-222300-
   EAST CENTRAL IOWA

CITY           SKY/WX    TMP DP  RH WIND       PRES   REMARKS
DAVENPORT      FAIR      64  27  24 E16       30.21S
IOWA CITY      FAIR      67  27  22 E14G24    30.19F
MUSCATINE *    FAIR      68  25  19 E15G22    30.17F
QUAD CITIES    FAIR      67  31  26 E16       30.18F
$$

IAZ062-063-075>077-085>089-095>099-222300-
   SOUTHEAST IOWA

CITY           SKY/WX    TMP DP  RH WIND       PRES   REMARKS
BURLINGTON     CLOUDY    64  21  19 E15G26    30.14S
FAIRFIELD *    PTSUNNY   68  25  19 E21       30.13S
FORT MADISON * CLOUDY    64  27  24 E15G21    30.15S
KEOKUK *       CLOUDY    63  28  27 NE16      30.12S
OSKALOOSA *    FAIR      70  22  16 E16G23    30.14F
CENTERVILLE *    N/A     68  34  28 E16G22    30.12S
OTTUMWA        MOSUNNY   70  28  21 E14       30.13F
WASHINGTON *   MOSUNNY   68  18  14 NE18G26   30.17S
$$

ABBREVIATIONS USED IN REMARKS
   TC - TEMPERATURES IN CELSIUS
  WCI - WIND CHILL INDEX
   HX - HEAT INDEX
  VSB - VISIBILITY
$$





USA.gov is the U.S. government's official web portal to all federal, state and local government web resources and services.